TimeEDT,TemperatureF,Dew PointF,Humidity,Sea Level PressureIn,VisibilityMPH,Wind Direction,Wind SpeedMPH,Gust SpeedMPH,PrecipitationIn,Events,Conditions,WindDirDegrees,DateUTC
12:10 AM,73.0,70.0,90,29.99,2.5,SSW,15.0,21.9,0.08,Rain-Thunderstorm,Heavy Thunderstorms and Rain,200,2014-05-01 04:10:00
12:30 AM,73.0,70.0,90,29.97,4.0,South,11.5,-,0.23,Rain-Thunderstorm,Thunderstorms and Rain,190,2014-05-01 04:30:00
12:38 AM,73.0,70.0,90,29.98,2.0,SSW,18.4,28.8,0.30,Rain-Thunderstorm,Heavy Thunderstorms and Rain,200,2014-05-01 04:38:00
12:54 AM,72.0,69.1,91,29.98,10.0,SW,12.7,-,0.30,Thunderstorm,Thunderstorm,220,2014-05-01 04:54:00
1:01 AM,72.0,68.0,87,29.98,10.0,SW,12.7,25.3,N/A,Thunderstorm,Thunderstorm,220,2014-05-01 05:01:00
1:13 AM,72.0,68.0,87,29.98,10.0,SSW,10.4,-,N/A,Thunderstorm,Thunderstorm,210,2014-05-01 05:13:00
1:38 AM,72.0,69.1,91,29.97,9.0,SSW,13.8,18.4,N/A,Thunderstorm,Thunderstorm,200,2014-05-01 05:38:00
1:54 AM,71.1,66.9,87,29.96,10.0,South,11.5,-,N/A,,Partly Cloudy,190,2014-05-01 05:54:00
2:54 AM,71.1,68.0,90,29.96,10.0,SSW,8.1,-,N/A,,Scattered Clouds,210,2014-05-01 06:54:00
3:01 AM,71.1,68.0,90,29.96,10.0,SW,10.4,-,N/A,,Mostly Cloudy,220,2014-05-01 07:01:00
3:44 AM,72.0,69.1,91,29.96,9.0,South,6.9,-,N/A,,Overcast,190,2014-05-01 07:44:00
3:54 AM,72.0,69.1,91,29.95,9.0,South,8.1,-,N/A,,Overcast,190,2014-05-01 07:54:00
4:08 AM,72.0,69.1,91,29.96,10.0,South,9.2,-,N/A,,Overcast,190,2014-05-01 08:08:00
4:52 AM,72.0,68.0,87,29.94,10.0,North,-9999.0,-,N/A,,Overcast,0,2014-05-01 08:52:00
5:54 AM,72.0,68.0,87,29.96,8.0,North,-9999.0,-,N/A,,Overcast,0,2014-05-01 09:54:00
6:54 AM,72.0,69.1,91,29.96,6.0,South,8.1,-,N/A,,Mostly Cloudy,190,2014-05-01 10:54:00
7:01 AM,72.0,69.1,91,29.97,5.0,North,-9999.0,-,N/A,,Overcast,0,2014-05-01 11:01:00
7:54 AM,73.0,68.0,84,29.96,7.0,North,-9999.0,-,N/A,,Mostly Cloudy,0,2014-05-01 11:54:00
8:18 AM,73.0,68.0,84,29.95,8.0,SSW,13.8,-,N/A,,Mostly Cloudy,210,2014-05-01 12:18:00
8:54 AM,75.0,66.9,76,29.95,10.0,SSW,11.5,-,N/A,,Mostly Cloudy,210,2014-05-01 12:54:00
9:01 AM,75.0,66.9,76,29.95,10.0,SW,10.4,-,N/A,,Mostly Cloudy,220,2014-05-01 13:01:00
9:54 AM,77.0,66.0,69,29.95,10.0,SW,8.1,-,N/A,,Mostly Cloudy,220,2014-05-01 13:54:00
10:54 AM,78.1,66.9,68,29.94,10.0,SSW,6.9,-,N/A,,Mostly Cloudy,210,2014-05-01 14:54:00
11:54 AM,79.0,66.9,66,29.94,10.0,Variable,6.9,-,N/A,,Overcast,0,2014-05-01 15:54:00
12:54 PM,79.0,66.9,66,29.93,10.0,South,10.4,-,N/A,,Overcast,190,2014-05-01 16:54:00
1:54 PM,75.9,66.0,71,29.94,10.0,South,15.0,19.6,N/A,,Mostly Cloudy,170,2014-05-01 17:54:00
2:54 PM,77.0,66.0,69,29.90,10.0,South,15.0,26.5,N/A,,Mostly Cloudy,190,2014-05-01 18:54:00
3:54 PM,77.0,64.9,66,29.88,10.0,SSW,16.1,24.2,N/A,,Scattered Clouds,200,2014-05-01 19:54:00
4:54 PM,75.0,64.9,71,29.87,10.0,SSW,13.8,23.0,N/A,,Partly Cloudy,200,2014-05-01 20:54:00
5:54 PM,73.9,64.0,71,29.89,10.0,SSW,13.8,20.7,N/A,,Mostly Cloudy,200,2014-05-01 21:54:00
6:54 PM,72.0,63.0,73,29.88,10.0,SSW,11.5,20.7,0.00,Rain,Light Rain,210,2014-05-01 22:54:00
7:54 PM,70.0,64.0,81,29.88,10.0,SSW,10.4,-,0.01,,Partly Cloudy,210,2014-05-01 23:54:00
8:54 PM,70.0,63.0,78,29.87,10.0,SSW,11.5,-,0.00,,Clear,210,2014-05-02 00:54:00
9:54 PM,70.0,63.0,78,29.88,10.0,SSW,9.2,18.4,N/A,,Partly Cloudy,210,2014-05-02 01:54:00
10:54 PM,70.0,63.0,78,29.87,10.0,North,-9999.0,-,N/A,,Mostly Cloudy,0,2014-05-02 02:54:00
11:54 PM,71.1,63.0,75,29.86,10.0,North,-9999.0,-,N/A,,Partly Cloudy,0,2014-05-02 03:54:00